Find Kosmos-2282

NORAD ID: 23168 Int'l Des: 1994-038 Owner: PVO Country: RU operational
HEOCIRCULARGSO

实时位置

正在加载3D地球...

关于 Kosmos-2282

正在加载描述...

即将过境

Passes for default location (London). Set your location on the main map for personalized predictions.

高度历史

Loading altitude history...

两行轨道根数

1 23168U 94038A 26104.41086345 .00000064 00000-0 00000+0 0 9997
2 23168 13.8806 353.1739 0005178 117.2200 66.3073 1.00256343116369
Epoch: Apr 14, 2026 • Age: 10 hours

当前状态

高度 35808.5 km
速度 3.07 km/s
星下点 -5.73°S, 173.22°W
发射日期 Jul 6, 1994
运行时间 31.7 years
类型 other

技术详情

分类 Payload
质量 2200.00 kg
干质量 2100.00 kg
总质量 2200.00 kg
长度 5.00 m
直径 2.00 m
跨度 10.00 m
形状 Step Cyl + 2 Pan
制造商 NPOL/KOMET
平台类型 Prognoz
阶段状态 In Orbit
所有者/国家 PVO/RU

Most Searched